"Pseudo-MPEC" for P21BUVz

Created 2022 Nov 25 8:22:20 UT using Find_Orb

Click here for an explanation of pseudo-MPECs

 
 Astrometry: 
     P21BUVz* C2022 11 19f-peG(,6kij]B2oZB]:`ixyI!iDV(oHh4#pAstrometry@9a0^yRF52
     P21BUVz  C2022 11 19pHf9+'SNYRQZAu7$j/LFQ:I!5==E!QK=#xqQX#(8yW)#!l)GCDpEF52
     P21BUVz  C2022 11 19Y3bXhXc:redacted;PZXSY*^k-@],wAcx3mE1ko0$]L\%*ysZY,gF52
     P21BUVz  C2022 11 19l6K7wku^Bp!@]n?n9h$=KPSQ4click,JHfViXF:Jx_E\'o]!R,tGF52
     P21BUVz  C2022 11 19yc%=h0JsDWxGw.6/U+YSjXiLhereML'2M2?,)a-[;3;ARKP7*]\cF52
     P21BUVz  C2022 11 19bj-ip?Ew+*4v;;:(WV#d[T!?k7(LyMYiCRhA^-%Lg%H(u=d,sgp.F52
     P21BUVz KC2022 11 20.29324 00 12 24.70 +27 53 56.9    ~BKA7 23.5 GVNEOCP291
     P21BUVz KC2022 11 20.33658 00 12 24.60 +27 53 09.0    ~BKA7 22.6 GVNEOCP291
     P21BUVz KC2022 11 23uLMg=0m=]forL`$N![Zi`k^5bHA56lC1rqR5'ERK8D*AFVZiYt5=H21
     P21BUVz KC2022 11 23/wfQ3VC0A;'tPbs]yO%)p%OM9?`4explanation.#C+CtrSq)ufdH21
     P21BUVz KC2022 11 23IqMvT-u]2$TkT[+MA?[xb@v79O.v$u`MlgJuy]a$k-2L89G1NFsnH21

Station data:
(291) LPL/Spacewatch II  (N31.961669 W111.599905)  US/Arizona.  Observers J.
   V. Scotti, R. S. McMillan. 1.8-m f/2.7 reflector + CCD.
(F52) Pan-STARRS 2, Haleakala  (N20.707382 W156.255910)  US/Hawaii.
   Observers J. Bulger, T. Dukes, T. Lowe, A. Schultz, M. Willman. Measurers
   K. Chambers, S. Chastel, T. de Boer, L. Denneau, J. Fairlamb, H.
   Flewelling, M. Huber, C.-C. Lin, E. Magnier, Y. Ramanjooloo, R. Wainscoat,
   R. Weryk. 1.8-m Ritchey-Chrétien + CCD.
(H21) Astronomical Research Observatory, Westfield  (N39.483054 W87.968270)
   US/Illinois.  Observer R. Holmes. Measurers S. Foglia, L. Buzzi, T.
   Linder, R. Holmes. 0.76-m f/3.0 astrograph + CCD0.81-m f/4.0 astrograph +
   CCD0.61-m f/4.5 astrograph + CCD0.40-m f/5.32 astrograph + CCD.

Orbital elements:  P21BUVz
   Perihelion 2023 Jun 21.45258 +/- 5.16 TT = 10:51:42 (JD 2460116.95258)
Epoch 2022 Nov 23.0 TT = JDT 2459906.5   Earth MOID: 0.6974   AutoNEOCP
M 303.22719515 +/- 2.7              (J2000 ecliptic)
n   0.26976530 +/- 0.0072           Peri.  236.21414 +/- 1.5
a   2.37216730 +/- 0.0422           Node   249.89237 +/- 0.38
e   0.3308710 +/- 0.012             Incl.   24.49562 +/- 0.22
P   3.65                   H 19.3   G  0.15   U  9.4
q 1.58728586 +/- 0.00745    Q 3.15704873 +/- 0.0841
From 11 observations 2022 Nov. 19-23; mean residual 0".18
Residuals in arcseconds: 
221119 F52  .11+  .03-    221119 F52  .14+  .07+    221123 H21  .01+  .20+    
221119 F52  .14+  .10+    221119 F52  .10-  .05-    221123 H21  .06+  .08-    
221119 F52  .28-  .21-    221120 291  .34+  .29-    221123 H21  .07-  .12-    
221119 F52  .02-  .13+    221120 291  .33-  .28+    

Ephemerides (geocentric):
Date (UTC) HH   RA             Dec           delta  r     elong  mag " sig PA
---- --------  ------------   ------------  ------ ------ -----  --- --------
2022 11 25 08  00 12 54.701   +26 22 47.91  1.4136 2.1612 127.5 22.8 1.39  87
2022 11 25 09  00 12 55.186   +26 22 03.65  1.4138 2.1610 127.4 22.8 1.43  87
2022 11 25 10  00 12 55.674   +26 21 19.41  1.4140 2.1608 127.4 22.8 1.46  87
2022 11 25 11  00 12 56.167   +26 20 35.18  1.4141 2.1607 127.4 22.8 1.50  87
2022 11 25 12  00 12 56.663   +26 19 50.98  1.4143 2.1605 127.3 22.8 1.53  87
2022 11 25 13  00 12 57.163   +26 19 06.79  1.4145 2.1603 127.3 22.8 1.57  87
2022 11 25 14  00 12 57.668   +26 18 22.62  1.4147 2.1602 127.2 22.8 1.61  87
2022 11 25 15  00 12 58.176   +26 17 38.47  1.4149 2.1600 127.2 22.8 1.64  87
2022 11 25 16  00 12 58.688   +26 16 54.34  1.4151 2.1599 127.2 22.8 1.68  87
2022 11 25 17  00 12 59.203   +26 16 10.22  1.4152 2.1597 127.1 22.8 1.72  87
2022 11 25 18  00 12 59.723   +26 15 26.13  1.4154 2.1595 127.1 22.8 1.75  87
2022 11 25 19  00 13 00.247   +26 14 42.05  1.4156 2.1594 127.1 22.8 1.79  87
2022 11 25 20  00 13 00.774   +26 13 57.99  1.4158 2.1592 127.0 22.8 1.83  87
2022 11 25 21  00 13 01.305   +26 13 13.95  1.4160 2.1590 127.0 22.8 1.87  87
2022 11 25 22  00 13 01.841   +26 12 29.93  1.4162 2.1589 127.0 22.8 1.91  87
2022 11 25 23  00 13 02.380   +26 11 45.93  1.4164 2.1587 126.9 22.8 1.95  87
2022 11 26 00  00 13 02.923   +26 11 01.94  1.4165 2.1586 126.9 22.8 1.99  87
2022 11 26 01  00 13 03.469   +26 10 17.97  1.4167 2.1584 126.8 22.8 2.03  87
2022 11 26 02  00 13 04.020   +26 09 34.03  1.4169 2.1582 126.8 22.8 2.07  87
2022 11 26 03  00 13 04.574   +26 08 50.10  1.4171 2.1581 126.8 22.8 2.11  87
2022 11 26 04  00 13 05.133   +26 08 06.19  1.4173 2.1579 126.7 22.8 2.15  87
2022 11 26 05  00 13 05.695   +26 07 22.30  1.4175 2.1577 126.7 22.8 2.19  87
2022 11 26 06  00 13 06.261   +26 06 38.43  1.4177 2.1576 126.7 22.8 2.23  87
2022 11 26 07  00 13 06.831   +26 05 54.57  1.4179 2.1574 126.6 22.8 2.27  87
2022 11 26 08  00 13 07.405   +26 05 10.74  1.4180 2.1573 126.6 22.8 2.32  87
2022 11 26 09  00 13 07.982   +26 04 26.92  1.4182 2.1571 126.6 22.8 2.36  87
2022 11 26 10  00 13 08.564   +26 03 43.13  1.4184 2.1569 126.5 22.8 2.40  87
2022 11 26 11  00 13 09.149   +26 02 59.35  1.4186 2.1568 126.5 22.8 2.44  87
2022 11 26 12  00 13 09.739   +26 02 15.59  1.4188 2.1566 126.4 22.8 2.49  87
2022 11 26 13  00 13 10.332   +26 01 31.85  1.4190 2.1564 126.4 22.8 2.53  87
2022 11 26 14  00 13 10.929   +26 00 48.14  1.4192 2.1563 126.4 22.8 2.58  87
2022 11 26 15  00 13 11.529   +26 00 04.44  1.4194 2.1561 126.3 22.8 2.62  87
2022 11 26 16  00 13 12.134   +25 59 20.76  1.4196 2.1560 126.3 22.8 2.67  87
2022 11 26 17  00 13 12.742   +25 58 37.09  1.4198 2.1558 126.3 22.8 2.71  87
2022 11 26 18  00 13 13.355   +25 57 53.45  1.4199 2.1556 126.2 22.8 2.76  87
2022 11 26 19  00 13 13.971   +25 57 09.83  1.4201 2.1555 126.2 22.8 2.80  87
2022 11 26 20  00 13 14.591   +25 56 26.23  1.4203 2.1553 126.2 22.8 2.85  87
2022 11 26 21  00 13 15.215   +25 55 42.64  1.4205 2.1551 126.1 22.8 2.90  87
2022 11 26 22  00 13 15.842   +25 54 59.08  1.4207 2.1550 126.1 22.8 2.94  87
2022 11 26 23  00 13 16.474   +25 54 15.54  1.4209 2.1548 126.0 22.8 2.99  87
2022 11 27 00  00 13 17.109   +25 53 32.01  1.4211 2.1546 126.0 22.8 3.04  87
2022 11 27 01  00 13 17.748   +25 52 48.51  1.4213 2.1545 126.0 22.8 3.09  87
2022 11 27 02  00 13 18.391   +25 52 05.02  1.4215 2.1543 125.9 22.8 3.14  87
2022 11 27 03  00 13 19.038   +25 51 21.56  1.4217 2.1542 125.9 22.8 3.19  87
2022 11 27 04  00 13 19.689   +25 50 38.12  1.4219 2.1540 125.9 22.8 3.24  87
2022 11 27 05  00 13 20.343   +25 49 54.69  1.4221 2.1538 125.8 22.8 3.29  87
2022 11 27 06  00 13 21.001   +25 49 11.29  1.4223 2.1537 125.8 22.8 3.34  87
2022 11 27 07  00 13 21.663   +25 48 27.90  1.4225 2.1535 125.8 22.8 3.39  87